Location: Moscow
(55.7500°N, 37.5830°E)
Time: 03:40:38
(UTC+03:00)

Transit 2A - Visible Passes

Search period start: 30 November 2021 00:00
Search period end: 10 December 2021 00:00
Orbit: 591 x 967 km, 66.7° (Epoch: 29 November)

Date Brightness Start Highest point End Pass type
(mag) Time Alt. Az. Time Alt. Az. Time Alt. Az.
30 Nov 9.1 02:28:49 13° NE 02:28:49 13° NE 02:29:29 10° NE visible
30 Nov 7.8 04:09:18 31° NNE 04:09:18 31° NNE 04:13:02 10° NE visible
30 Nov 7.5 05:49:47 26° NNW 05:51:42 31° N 05:57:18 10° ENE visible
30 Nov 7.3 07:30:35 10° NW 07:36:31 39° NNE 07:42:30 10° E visible
01 Dec 8.2 03:36:04 25° NNE 03:36:04 25° NNE 03:38:43 10° NE visible
01 Dec 7.5 05:16:33 31° NNW 05:17:09 31° N 05:22:48 10° NE visible
01 Dec 7.5 06:57:02 14° NW 07:02:01 36° NNE 07:07:53 10° E visible
02 Dec 8.7 03:02:49 18° NE 03:02:49 18° NE 03:04:26 10° NE visible
02 Dec 7.6 04:43:18 32° N 04:43:18 32° N 04:48:19 10° NE visible
02 Dec 7.6 06:23:47 19° NW 06:27:30 33° NNE 06:33:15 10° ENE visible
03 Dec 9.1 02:29:34 13° NE 02:29:34 13° NE 02:30:10 10° NE visible
03 Dec 7.9 04:10:03 29° NNE 04:10:03 29° NNE 04:13:53 10° NE visible
03 Dec 7.6 05:50:32 25° NNW 05:52:58 32° N 05:58:38 10° ENE visible
03 Dec 7.0 07:31:18 10° NW 07:37:33 52° NNE 07:43:44 10° ESE visible
04 Dec 8.3 03:36:48 23° NNE 03:36:48 23° NNE 03:39:30 10° NE visible
04 Dec 7.6 05:17:17 29° NNW 05:18:24 31° N 05:24:02 10° ENE visible
04 Dec 7.2 06:57:46 14° NW 07:03:07 45° NNE 07:09:13 10° E visible
05 Dec 8.7 03:03:33 18° NE 03:03:33 18° NE 03:05:10 10° NE visible
05 Dec 7.7 04:44:02 31° N 04:44:02 31° N 04:49:27 10° ENE visible
05 Dec 7.4 06:24:31 19° NW 06:28:40 40° NNE 06:34:38 10° E visible
06 Dec 9.1 02:30:19 12° NE 02:30:19 12° NE 02:30:51 10° NE visible
06 Dec 8.0 04:10:48 28° NNE 04:10:48 28° NNE 04:14:57 10° NE visible
06 Dec 7.5 05:51:17 25° NNW 05:54:10 36° NNE 06:00:02 10° E visible
06 Dec 6.7 07:31:56 10° NW 07:38:23 76° NE 07:44:40 10° SE visible
07 Dec 8.4 03:37:33 23° NNE 03:37:33 23° NNE 03:40:28 10° NE visible
07 Dec 7.5 05:18:02 30° NNW 05:19:39 34° NNE 05:25:25 10° ENE visible
07 Dec 6.8 06:58:31 14° NW 07:04:02 63° NE 07:10:18 10° ESE visible
08 Dec 8.8 03:04:20 18° NE 03:04:20 18° NE 03:06:02 10° NE visible
08 Dec 7.6 04:44:49 32° N 04:45:06 32° N 04:50:48 10° ENE visible
08 Dec 7.0 06:25:18 20° NW 06:29:40 54° NE 06:35:51 10° ESE visible
09 Dec 9.1 02:31:07 12° NE 02:31:07 12° NE 02:31:38 10° NE visible
09 Dec 7.9 04:11:37 29° NNE 04:11:37 29° NNE 04:16:11 10° ENE visible
09 Dec 7.2 05:52:06 27° NNW 05:55:15 47° NNE 06:01:20 10° ESE visible
09 Dec 6.6 07:32:35 10° NW 07:38:58 71° SW 07:45:10 10° SSE visible
